Location: Powder Track
(41.8531°N, 72.3584°W)
Time: 20:54:59
(UTC+00:00)

X-37B - Pass Details

Date: 23 June 2021
Orbit: 383 x 392 km, 45.0° (Epoch: 01 July)

Event Time Altitude Azimuth Distance (km) Brightness Sun altitude
Exits shadow 08:32:09 - 247° (WSW) 1,491 2.9 -7.2°
Reaches altitude 10° 08:32:42 10° 238° (WSW) 1,402 2.7 -7.1°
Maximum altitude 08:33:42 11° 220° (SW) 1,335 2.6 -7.0°
Drops below altitude 10° 08:34:42 10° 201° (SSW) 1,400 2.9 -6.9°
Sets 08:37:58 0° 164° (SSE) 2,251 4.2 -6.4°
